Location: Castillon
(43.0896°N, 0.2156°E)
Time: 17:08:43
(UTC+00:00)

ARIANE 5 R/B - Pass Details

Date: 16 June 2021
Orbit: 620 x 656 km, 98.1° (Epoch: 28 July)

Event Time Altitude Azimuth Distance (km) Brightness Sun altitude
Exits shadow 21:43:40 22° 188° (S) 1,400 3.9 -16.5°
Maximum altitude 21:46:22 56° 260° (W) 768 3.1 -16.8°
Drops below altitude 10° 21:50:47 10° 338° (NNW) 2,057 6.5 -17.2°
Sets 21:53:03 0° 343° (NNW) 2,977 7.6 -17.4°
